Wind_Speed
22 22 23 23 23 23 22 21 21 21 20 19 20 22 23 23 23 24 24 25 25 25 26 27 27 28 30 31 33 34 35 37 39 40 40 41 42 44 44 45 45 47 48 51
19 19 20 20 20 19 19 19 19 19 19 19 19 23 25 24 24 25 25 26 25 25 26 26 27 27 28 30 32 34 35 37 39 41 42 43 44 45 46 46 48 50 52 54
17 17 17 17 17 17 18 18 18 18 18 19 20 23 27 26 26 26 26 26 25 26 26 26 26 27 28 30 31 33 35 36 38 41 43 44 46 47 48 49 51 53 55 55
14 14 14 15 16 16 16 18 19 19 20 19 21 21 27 30 28 26 26 26 26 26 26 27 28 28 28 30 31 33 35 37 39 41 43 45 47 48 49 51 53 54 56 57
12 12 14 15 16 17 18 19 20 21 22 21 22 22 23 30 30 29 28 27 27 27 28 29 29 30 30 31 32 34 36 38 40 41 44 46 47 49 51 53 54 56 57 58
12 13 14 16 17 19 20 21 22 23 23 23 21 22 23 28 30 33 33 31 31 31 31 32 32 32 32 33 34 35 37 39 41 42 44 46 48 50 52 54 55 57 58 58
14 14 16 17 18 19 21 23 25 26 26 26 24 24 24 28 31 34 36 36 36 34 33 33 33 33 34 35 36 38 39 41 43 44 46 48 49 51 53 55 56 58 59 59
16 15 16 18 20 21 22 24 26 28 29 29 28 26 26 30 33 36 38 39 38 35 34 34 35 37 38 39 40 41 42 44 45 46 47 49 51 53 54 56 57 59 60 61
18 18 17 20 21 23 25 25 27 30 32 33 32 29 28 28 33 38 39 40 39 37 36 36 38 39 40 41 42 43 44 45 46 48 49 51 53 54 56 57 59 61 62 63
20 20 19 21 24 26 28 29 31 32 35 37 36 35 33 32 34 36 38 38 37 36 36 37 38 38 39 40 41 42 44 45 47 49 51 53 55 56 58 59 60 61 62 63
22 24 24 24 26 29 29 30 32 34 35 37 38 33 32 34 34 35 35 34 33 33 34 35 36 37 39 40 41 43 44 46 48 49 51 53 55 57 59 60 61 62 63 64
26 27 27 28 29 31 32 31 32 33 34 35 37 35 32 33 35 35 33 32 32 33 34 36 37 38 40 41 42 43 45 46 48 49 51 52 54 56 57 59 60 61 62 64
29 30 31 31 33 34 33 32 31 32 33 32 33 32 30 33 35 35 34 35 35 36 37 38 39 40 42 43 44 45 46 48 49 50 51 52 54 55 56 57 58 60 61 62
33 32 32 32 33 35 34 32 30 30 30 29 28 29 28 31 33 34 35 37 38 39 40 41 42 44 45 47 48 49 49 50 51 52 53 54 56 56 57 58 59 60 60 61
34 33 32 31 30 30 28 27 28 29 29 31 29 30 30 32 32 34 36 38 40 41 43 45 46 48 49 51 52 53 54 55 56 56 57 58 58 59 59 59 59 59 60 60
33 32 31 29 27 27 25 25 27 28 29 30 31 31 33 34 35 36 39 42 44 45 47 49 51 53 54 55 57 58 58 59 60 60 60 61 61 61 61 61 60 60 61 61
31 32 31 27 26 27 26 26 27 27 28 30 32 34 35 37 39 41 43 46 48 50 52 54 56 58 59 61 62 62 62 63 63 64 64 64 64 64 63 63 62 62 62 62
31 30 30 29 28 27 26 27 28 29 30 33 34 37 39 41 43 45 48 51 53 55 58 60 62 63 64 65 66 66 66 66 66 66 66 66 66 65 65 64 64 63 62 61
29 29 30 30 30 28 27 28 31 33 34 35 38 40 43 45 47 49 52 55 58 61 63 65 66 67 68 69 69 69 69 69 69 69 68 67 67 66 65 65 64 63 61 60
28 29 31 32 33 31 31 33 35 38 40 41 43 46 48 50 53 54 58 60 62 65 67 68 70 71 71 71 72 71 70 70 70 69 68 67 67 66 65 64 63 62 60 59
28 30 31 34 36 35 36 38 40 42 45 47 49 51 54 57 60 62 64 65 67 69 71 73 73 74 74 74 74 72 71 70 70 69 67 66 66 65 64 62 61 59 58 57
29 31 34 37 38 39 41 42 44 47 49 51 54 56 59 61 64 66 68 70 72 73 75 75 76 76 75 75 74 73 71 70 69 67 66 64 63 62 61 59 58 57 55 54
31 33 38 41 41 42 45 48 50 53 54 56 59 61 63 65 67 69 71 73 75 76 77 78 78 77 75 74 73 72 70 68 67 65 63 62 60 59 58 56 54 52 51 49
34 37 42 44 44 45 48 50 53 56 58 60 63 65 67 69 71 73 75 76 78 78 79 79 78 77 74 72 71 69 68 66 64 62 61 60 58 56 54 52 51 49 48 46
37 43 46 48 48 51 52 55 58 60 62 64 66 68 71 73 74 76 77 78 79 79 78 77 76 75 72 71 69 67 66 64 62 60 58 56 54 52 49 48 47 46 44 44
40 47 50 51 52 56 57 60 62 64 65 67 69 71 73 75 76 77 78 78 78 77 76 75 73 71 69 68 66 64 63 61 59 56 54 52 49 47 45 44 43 43 42 42
Wind_Direction
275 277 280 282 285 287 290 292 293 296 299 301 302 300 300 303 305 306 307 307 305 302 298 294 290 287 284 282 280 278 275 274 274 274 274 275 276 277 280 282 284 285 285 287
278 280 283 285 286 289 290 292 293 295 298 299 300 300 301 303 306 307 307 308 308 306 304 300 297 292 289 285 283 281 279 277 277 277 276 277 278 279 281 282 282 283 284 287
283 285 286 288 289 291 293 294 295 296 298 301 301 302 301 301 304 306 307 308 308 307 306 304 300 296 292 289 286 284 283 281 280 280 279 279 279 279 280 281 281 283 285 287
285 289 291 293 294 295 296 297 299 300 301 304 304 308 307 305 306 308 308 308 309 309 307 305 302 298 295 292 289 286 284 283 281 281 281 280 280 281 281 281 282 283 285 286
287 290 293 295 297 298 299 300 301 302 304 306 307 308 309 305 307 308 308 309 309 309 308 306 302 299 296 293 290 288 286 284 283 282 282 282 282 281 281 281 282 283 283 284
288 290 292 295 297 300 301 302 303 303 304 304 306 308 311 306 309 308 308 309 310 310 309 305 302 299 297 294 292 290 288 286 285 284 283 283 282 282 282 282 283 283 283 284
285 290 295 297 299 301 303 305 305 306 308 309 312 314 314 308 307 305 306 308 308 308 306 303 300 298 297 295 294 292 290 288 287 286 285 284 283 283 283 283 284 284 284 285
287 290 294 296 299 301 302 305 306 308 309 308 311 312 312 307 304 303 304 305 305 306 305 302 300 299 298 297 295 293 292 290 288 287 286 285 284 284 284 284 285 285 285 285
289 293 296 297 300 301 303 304 305 305 305 304 306 306 305 303 302 303 304 306 308 310 308 305 303 301 300 298 296 294 292 290 289 287 287 286 285 285 285 285 285 285 285 285
288 292 295 297 299 300 301 303 304 304 304 305 306 310 313 311 308 306 307 310 314 313 310 307 305 302 300 298 296 294 293 291 289 287 286 286 285 285 284 284 284 285 285 285
288 292 295 295 295 296 297 299 300 301 301 302 304 309 312 310 308 307 311 316 315 311 309 308 306 305 303 301 299 298 296 295 294 292 291 289 288 287 287 286 285 285 284 284
289 292 295 296 296 296 297 298 299 299 299 301 304 309 312 310 309 312 317 318 316 314 313 313 312 311 310 308 307 305 304 302 300 299 297 295 294 292 291 290 288 288 287 286
289 292 294 295 295 295 297 298 298 297 298 300 303 309 310 308 310 316 319 318 317 317 316 316 315 314 313 312 311 310 309 307 306 304 301 300 298 297 296 294 293 291 290 289
288 290 293 294 295 296 299 301 300 299 300 302 305 307 308 307 312 316 317 316 316 317 316 315 314 314 313 312 311 311 310 309 308 307 305 303 302 300 299 298 297 295 293 292
286 289 290 291 291 291 294 296 296 298 301 303 307 307 307 309 313 314 314 314 314 315 314 314 314 313 313 312 311 310 310 309 308 307 306 305 304 302 301 300 299 297 295 293
286 288 288 289 289 289 293 293 293 296 298 301 305 306 307 311 312 313 312 311 312 313 313 313 313 312 312 311 310 309 309 308 307 306 305 304 303 302 301 301 299 298 296 294
282 284 285 286 286 289 292 292 293 295 298 301 303 306 308 310 311 311 311 310 311 312 312 312 312 311 311 310 310 309 308 307 306 306 305 303 302 302 301 300 299 298 296 295
282 282 282 284 284 287 291 292 293 295 299 301 303 306 308 308 309 310 310 310 311 311 311 311 311 311 310 310 309 308 307 307 306 305 305 304 303 302 301 300 299 298 297 296
277 279 282 285 286 288 289 291 294 296 299 301 304 305 306 307 307 309 309 310 311 311 311 311 310 310 309 309 308 307 307 306 306 305 304 303 303 302 301 300 299 298 296 295
274 278 282 286 287 291 294 294 296 299 300 302 305 306 307 307 307 308 309 309 309 309 309 309 309 309 308 308 307 307 307 306 305 305 304 303 303 302 301 301 299 297 296 295
273 277 282 285 288 292 294 296 298 300 303 305 307 307 307 308 309 309 309 309 308 308 308 308 308 308 308 307 307 307 306 306 305 305 304 303 303 302 302 301 299 297 296 296
273 278 281 284 288 293 294 297 299 301 303 305 306 306 307 307 307 307 307 307 307 307 308 307 307 308 308 307 307 306 306 305 305 304 304 303 302 301 301 301 300 298 297 297
276 281 284 286 289 293 295 298 300 302 303 304 305 305 305 305 306 306 306 306 307 307 307 307 307 307 307 307 307 306 306 305 305 304 303 302 301 301 301 301 301 300 299 299
280 281 282 285 289 292 294 297 299 300 301 302 303 304 304 304 305 305 305 306 306 306 306 306 307 307 307 307 306 306 305 305 305 304 303 302 302 301 301 301 301 302 301 300
284 282 283 286 290 292 295 297 299 300 301 302 303 304 304 304 304 304 305 305 306 306 306 306 307 307 307 306 306 306 305 305 305 305 305 304 303 303 302 301 301 302 302 302
283 283 286 291 293 295 297 298 300 301 301 302 302 302 302 303 304 304 305 305 306 306 306 306 307 307 307 307 307 306 306 307 307 307 307 307 306 304 303 303 303 302 303 303
Height
5839 5840 5839 5839 5839 5838 5837 5837 5836 5835 5834 5834 5832 5830 5828 5827 5826 5824 5822 5820 5818 5817 5814 5813 5812 5811 5809 5808 5806 5805 5804 5802 5801 5800 5799 5797 5796 5794 5793 5791 5789 5786 5782 5779
5835 5835 5835 5834 5834 5833 5833 5833 5832 5831 5830 5830 5828 5825 5823 5822 5821 5819 5817 5815 5813 5811 5809 5807 5805 5804 5802 5800 5798 5797 5796 5795 5793 5791 5790 5789 5787 5786 5784 5782 5779 5775 5772 5768
5830 5831 5830 5830 5830 5829 5829 5829 5828 5828 5827 5826 5825 5822 5818 5817 5816 5814 5812 5810 5808 5806 5804 5801 5799 5797 5795 5793 5791 5789 5787 5786 5785 5782 5781 5779 5777 5776 5774 5771 5767 5764 5760 5757
5827 5827 5826 5826 5826 5826 5826 5825 5824 5823 5822 5822 5820 5818 5813 5809 5809 5809 5807 5805 5803 5800 5798 5795 5792 5790 5788 5785 5783 5780 5778 5776 5775 5772 5771 5768 5767 5765 5763 5759 5755 5752 5748 5744
5824 5824 5823 5823 5823 5822 5821 5820 5819 5818 5817 5817 5815 5814 5812 5804 5802 5801 5800 5799 5797 5794 5792 5788 5785 5783 5780 5777 5775 5772 5769 5767 5764 5762 5760 5757 5755 5752 5749 5745 5742 5739 5735 5730
5821 5821 5820 5820 5819 5818 5817 5816 5815 5813 5812 5812 5811 5809 5807 5801 5797 5794 5792 5792 5790 5788 5785 5781 5778 5775 5772 5769 5766 5763 5760 5757 5754 5751 5748 5745 5742 5738 5735 5731 5728 5724 5720 5717
5818 5818 5816 5816 5815 5814 5812 5812 5810 5808 5806 5805 5804 5803 5802 5796 5792 5789 5786 5784 5782 5780 5777 5773 5770 5767 5764 5760 5757 5754 5750 5747 5744 5740 5736 5733 5729 5725 5721 5717 5713 5709 5705 5701
5813 5814 5813 5811 5810 5809 5808 5807 5805 5802 5800 5799 5798 5798 5796 5790 5786 5782 5779 5776 5774 5772 5769 5765 5761 5758 5754 5751 5747 5743 5739 5735 5731 5727 5723 5719 5715 5711 5707 5702 5698 5693 5689 5685
5808 5809 5809 5807 5805 5804 5802 5801 5799 5797 5794 5792 5792 5792 5790 5785 5779 5774 5770 5767 5765 5763 5759 5755 5751 5748 5744 5740 5736 5732 5728 5723 5719 5714 5710 5706 5701 5697 5692 5688 5683 5678 5673 5668
5804 5804 5804 5802 5801 5798 5797 5795 5793 5790 5786 5783 5782 5782 5780 5775 5771 5767 5762 5759 5757 5753 5749 5745 5741 5737 5733 5729 5725 5720 5716 5711 5707 5702 5697 5692 5687 5682 5677 5673 5668 5663 5657 5652
5798 5798 5798 5798 5796 5793 5792 5790 5786 5783 5780 5776 5774 5777 5773 5767 5763 5759 5756 5753 5749 5745 5741 5737 5732 5728 5723 5719 5714 5710 5705 5700 5695 5690 5684 5679 5674 5668 5663 5657 5652 5647 5642 5636
5792 5792 5791 5790 5788 5785 5783 5781 5779 5776 5773 5769 5765 5768 5764 5759 5754 5751 5749 5745 5741 5737 5733 5728 5724 5719 5714 5709 5704 5699 5694 5689 5683 5677 5672 5666 5660 5654 5648 5643 5637 5631 5626 5620
5785 5784 5784 5782 5781 5778 5775 5774 5771 5768 5765 5762 5759 5761 5756 5751 5746 5743 5740 5737 5732 5729 5724 5720 5715 5710 5705 5700 5695 5689 5683 5678 5672 5665 5659 5653 5646 5640 5634 5628 5621 5615 5610 5604
5777 5777 5776 5775 5772 5768 5766 5764 5762 5759 5757 5754 5753 5751 5750 5745 5741 5737 5734 5729 5725 5720 5716 5711 5707 5702 5696 5690 5685 5679 5672 5666 5659 5652 5646 5639 5632 5625 5619 5612 5606 5599 5593 5587
5769 5769 5767 5766 5764 5761 5759 5758 5755 5751 5749 5747 5746 5743 5741 5737 5735 5731 5726 5721 5717 5712 5707 5702 5697 5691 5686 5680 5673 5667 5660 5653 5646 5639 5632 5624 5617 5610 5603 5596 5590 5583 5577 5571
5760 5760 5758 5758 5755 5753 5753 5751 5748 5746 5743 5740 5738 5736 5733 5730 5726 5722 5718 5712 5708 5703 5698 5692 5686 5680 5674 5667 5660 5653 5646 5639 5631 5624 5616 5609 5602 5594 5587 5580 5573 5566 5560 5554
5754 5752 5750 5750 5748 5746 5746 5744 5741 5739 5737 5734 5731 5729 5725 5721 5717 5713 5708 5702 5697 5692 5686 5680 5674 5667 5660 5653 5645 5638 5631 5623 5615 5608 5600 5592 5585 5578 5570 5563 5556 5549 5543 5536
5745 5742 5741 5741 5741 5740 5741 5736 5734 5731 5730 5726 5723 5720 5716 5712 5708 5703 5697 5691 5685 5679 5673 5666 5659 5652 5645 5637 5629 5622 5614 5606 5598 5590 5582 5573 5566 5559 5552 5545 5538 5531 5525 5519
5736 5734 5733 5732 5730 5732 5732 5729 5725 5723 5721 5718 5715 5711 5707 5702 5698 5693 5685 5678 5672 5665 5659 5651 5644 5636 5629 5620 5612 5604 5596 5588 5580 5571 5563 5555 5547 5540 5533 5526 5519 5513 5507 5501
5729 5727 5726 5723 5721 5723 5723 5720 5716 5714 5710 5708 5704 5699 5695 5689 5685 5681 5672 5666 5659 5651 5644 5636 5628 5620 5611 5602 5594 5586 5578 5569 5561 5553 5545 5536 5528 5520 5514 5507 5501 5494 5489 5484
5722 5719 5718 5714 5712 5713 5712 5709 5706 5704 5700 5696 5691 5686 5681 5675 5670 5664 5657 5650 5642 5635 5627 5618 5610 5602 5592 5583 5575 5567 5558 5550 5541 5534 5526 5517 5509 5501 5495 5489 5482 5476 5471 5466
5714 5712 5709 5706 5705 5706 5701 5698 5695 5692 5688 5684 5679 5673 5668 5662 5655 5648 5641 5634 5626 5618 5609 5601 5592 5584 5574 5564 5555 5548 5540 5531 5523 5515 5507 5499 5491 5484 5477 5471 5465 5459 5453 5449
5706 5704 5699 5697 5698 5695 5690 5686 5682 5679 5675 5670 5665 5660 5653 5647 5640 5633 5626 5617 5609 5600 5591 5582 5574 5566 5556 5545 5535 5527 5520 5512 5504 5497 5489 5481 5474 5467 5460 5454 5448 5443 5437 5433
5697 5694 5689 5687 5688 5684 5680 5676 5672 5667 5662 5657 5651 5645 5638 5631 5624 5617 5608 5600 5591 5582 5573 5564 5555 5547 5538 5528 5518 5508 5501 5493 5486 5479 5472 5464 5458 5451 5445 5439 5433 5428 5423 5418
5687 5681 5677 5676 5676 5672 5668 5663 5658 5653 5647 5641 5635 5628 5621 5614 5607 5599 5591 5582 5573 5564 5555 5545 5536 5528 5520 5511 5502 5492 5483 5476 5470 5463 5455 5448 5441 5435 5430 5425 5419 5414 5409 5404
5673 5668 5665 5665 5662 5658 5654 5648 5643 5637 5632 5625 5619 5612 5604 5596 5589 5581 5573 5564 5555 5546 5536 5528 5519 5510 5501 5492 5485 5476 5467 5460 5453 5447 5441 5434 5427 5421 5416 5411 5407 5401 5396 5391